Weather in Temnik

Russia / Republic of Buryatia     51°00′17″N   106°11′24″E
temp.,
°C
wind,
m/s
gust,
m/s
humid.,
%
clouds,
%
prec.,
mm/h
press.,
hPa
HPBL,
m
15 april, thu
thu1523:00−2w22634 0.0 101811
02:00−3w22675 0.0 101811
05:00−5wnw11735 0.0 101710
08:00−2w1158100 0.0 1016210
11:00+3sw2335100 0.0 10131013
14:00+6nne3527100 0.0 10132383
17:00+5nnw91039100 0.4 10142025
20:00+1nnw9165973 0.4 10181069
16 april, fri
fri1623:000nw1117580 0.0 1021861
02:00−2nw6125911 0.0 1024510
05:00−4w2270100 0.0 102617
08:00−1wsw12547 0.0 1027305
11:00+4w23275 0.0 10241350
14:00+9se131724 0.0 10201709
17:00+11ese231714 0.0 10171248
20:00+6ene12305 0.0 101714
17 april, sat
sat1723:00+4sse11345 0.0 101614
02:00+2ssw11405 0.0 101513
05:000s11515 0.0 101412
08:00+3s124483 0.0 1014201
11:00+10s22325 0.0 1011748
14:00+14sse01245 0.0 10081178
17:00+15ne32235 0.0 1006935
20:00+10nne33338 0.0 100726
18 april, sun
sun1823:00+7n334816 0.0 100931
02:00+4n2478100 0.0 1010112
05:00+2n228759 0.0 100951
08:00+4n2374100 0.0 1009277
11:00+7nne2256100 0.0 1007611
14:00+12ne354192 0.0 1005866
17:00+9n10124893 0.0 10101277
20:00+5n7135498 0.0 10161313
19 april, mon
mon1923:00+3n61248100 0.0 10211329
02:000n22535 0.0 102341
05:00−2ene11620 0.0 102410
08:00+1sse22475 0.0 1024388
11:00+6s4524100 0.0 10201281
14:00+11ssw68260 0.0 10151614
17:00+13sw572912 0.0 10111640
20:00+9sse224145 0.0 101014